Terminal Aerodrome Forecast
Issued by NWS Springfield, MO

Home | Current Version | Previous Version | Text Only | Print | Product List | Glossary On
Versions: 1 2 3 4 5 6 7 8 9 10 11 12 13 14 15 16 17 18 19 20 21 22
000
FTUS43 KSGF 190500
TAFSGF
TAF
KSGF 190520Z 1906/2006 08003KT 2SM BR OVC003
     FM190900 09003KT 1/2SM FG VV002
     FM191500 11004KT 1 1/2SM BR OVC003
     FM191900 VRB03KT 4SM BR OVC006
     FM192200 VRB03KT P6SM OVC008
     FM200300 VRB03KT 3SM BR OVC004=

USA.gov is the U.S. government's official web portal to all federal, state and local government web resources and services.